CWLEESTJE Weather Reports


Display with metric or nautical units.
time (UTC)temp
F
wind
direction
speed
MPH
gust
MPH
rain 1hr
in
rain 24hr
in
rain mn
in
humidity
%
barometer
mb
20260906150536 75 163 7.0 11.0 0.00 0.00 0.00 58
20260906145517 76 142 7.0 10.0 0.00 0.00 0.00 55
20260906144528 75 171 6.0 11.0 0.00 0.00 0.00 58
20260906143540 75 151 6.0 11.0 0.00 0.00 0.00 54
20260906142522 77 155 7.0 11.0 0.00 0.00 0.00 56
20260906141521 76 168 8.0 12.0 0.00 0.00 0.00 56
20260906140529 76 188 7.0 14.0 0.00 0.00 0.00 56
20260906135529 76 140 7.0 11.0 0.00 0.00 0.00 57
20260906134520 76 134 6.0 12.0 0.00 0.00 0.00 58
20260906133519 76 173 6.0 10.0 0.00 0.00 0.00 57
20260906132530 75 154 6.0 13.0 0.00 0.00 0.00 58
20260906131533 75 178 6.0 11.0 0.00 0.00 0.00 59
20260906130540 74 141 5.0 10.0 0.00 0.00 0.00 58
20260906125523 74 171 7.0 13.0 0.00 0.00 0.00 60
20260906124534 74 150 4.0 13.0 0.00 0.00 0.00 59
20260906123536 74 126 8.0 14.0 0.00 0.00 0.00 61
20260906122545 74 163 6.0 11.0 0.00 0.00 0.00 62
20260906121527 73 187 9.0 12.0 0.00 0.00 0.00 62
20260906120528 73 135 7.0 13.0 0.00 0.00 0.00 63
20260906115519 73 125 8.0 12.0 0.00 0.00 0.00 66
20260906114546 73 147 9.0 13.0 0.00 0.00 0.00 66
20260906113528 72 174 10.0 15.0 0.00 0.00 0.00 66
20260906112557 72 177 9.0 14.0 0.00 0.00 0.00 65
20260906111538 71 172 9.0 14.0 0.00 0.00 0.00 66
20260906110518 71 159 11.0 14.0 0.00 0.00 0.00 67
20260906105529 71 128 7.0 11.0 0.00 0.00 0.00 68
20260906104540 71 142 10.0 13.0 0.00 0.00 0.00 68
20260906103517 70 140 9.0 12.0 0.00 0.00 0.00 71
20260906102520 70 176 6.0 10.0 0.00 0.00 0.00 72
20260906101531 69 126 7.0 11.0 0.00 0.00 0.00 72
20260906100531 69 128 9.0 13.0 0.00 0.00 0.00 74
20260906095521 68 169 8.0 12.0 0.00 0.00 0.00 73
20260906094524 68 177 7.0 12.0 0.00 0.00 0.00 75
20260906093535 67 175 7.0 13.0 0.00 0.00 0.00 76
20260906092602 66 161 8.0 12.0 0.00 0.00 0.00 76
20260906091542 65 152 7.0 13.0 0.00 0.00 0.00 77
20260906090553 65 146 8.0 11.0 0.00 0.00 0.00 78
20260906085542 64 138 8.0 11.0 0.00 0.00 0.00 78
20260906084523 64 152 8.0 11.0 0.00 0.00 0.00 79
20260906083534 63 159 5.0 11.0 0.00 0.00 0.00 80
20260906082532 63 134 7.0 10.0 0.00 0.00 0.00 81
20260906081543 62 142 7.0 11.0 0.00 0.00 0.00 83
20260906080533 61 128 6.0 9.0 0.00 0.00 0.00 85
20260906075532 60 126 7.0 10.0 0.00 0.00 0.00 85
20260906074544 60 134 6.0 9.0 0.00 0.00 0.00 86
20260906073544 59 147 5.0 9.0 0.00 0.00 0.00 87
20260906072531 58 137 4.0 6.0 0.00 0.00 0.00 89
20260906071532 58 117 4.0 7.0 0.00 0.00 0.00 89
20260906070543 57 119 4.0 9.0 0.00 0.00 0.00 89
20260906065552 57 111 6.0 8.0 0.00 0.00 0.00 90
20260906064543 56 103 4.0 7.0 0.00 0.00 0.00 91
20260906063528 55 98 5.0 6.0 0.00 0.00 0.00 92
20260906062542 54 94 4.0 6.0 0.00 0.00 0.00 92
20260906061526 53 86 4.0 5.0 0.00 0.00 0.00 92
20260906060527 52 81 3.0 5.0 0.00 0.00 0.00 93
20260906055521 51 80 3.0 5.0 0.00 0.00 0.00 92
20260906054525 50 80 4.0 5.0 0.00 0.00 0.00 92
20260906053518 50 80 5.0 5.0 0.00 0.00 0.00 91
20260906052523 50 80 3.0 4.0 0.00 0.00 0.00 91
20260906051557 50 79 3.0 5.0 0.00 0.00 0.00 91
20260906050518 50 79 4.0 5.0 0.00 0.00 0.00 92
20260906045527 50 78 2.0 3.0 0.00 0.00 0.00 92
20260906044540 50 78 2.0 3.0 0.00 0.00 0.00 91
20260906043523 50 78 2.0 5.0 0.00 0.00 0.00 92
20260906042528 50 78 3.0 5.0 0.00 0.00 0.00 92
20260906041540 50 77 4.0 5.0 0.00 0.00 0.00 92
20260906040532 50 38 2.0 4.0 0.00 0.00 0.00 91
20260906035604 50 38 0.0 2.0 0.00 0.00 0.00 91
20260906034523 50 38 1.0 4.0 0.00 0.00 0.00 91
20260906033527 50 38 2.0 3.0 0.00 0.00 0.00 91
20260906032519 50 38 1.0 4.0 0.00 0.00 0.00 91
20260906031524 50 38 2.0 5.0 0.00 0.00 0.00 91
20260906030537 51 5 0.0 0.0 0.00 0.00 0.00 91
20260906025520 50 5 0.0 0.0 0.00 0.00 0.00 91
20260906024533 50 5 0.0 0.0 0.00 0.00 0.00 92
20260906023537 50 355 0.0 0.0 0.00 0.00 0.00 91
20260906022518 50 355 0.0 0.0 0.00 0.00 0.00 91
20260906021532 50 355 0.0 0.0 0.00 0.00 0.00 91
20260906020544 50 355 0.0 0.0 0.00 0.00 0.00 91
20260906015549 50 355 0.0 0.0 0.00 0.00 0.00 91
20260906014521 50 355 0.0 0.0 0.00 0.00 0.00 91
20260906013524 50 355 0.0 0.0 0.00 0.00 0.00 90
20260906012537 50 355 0.0 0.0 0.00 0.00 0.00 90
20260906011521 50 355 0.0 0.0 0.00 0.00 0.00 90
20260906010530 50 355 0.0 0.0 0.00 0.00 0.00 90
20260906005535 50 355 0.0 0.0 0.00 0.00 0.00 90
20260906004519 51 355 0.0 0.0 0.00 0.00 0.00 89
20260906003532 51 355 0.0 5.0 0.00 0.00 0.00 90
20260906002544 52 355 4.0 5.0 0.00 0.00 0.00 90
20260906001528 51 355 4.0 5.0 0.00 0.00 0.00 91
20260906000533 51 355 1.0 2.0 0.00 0.00 0.00 90
20260905235526 51 355 0.0 5.0 0.00 0.00 0.00 90
20260905234525 51 344 1.0 2.0 0.00 0.00 0.00 90
20260905233537 52 344 0.0 2.0 0.00 0.00 0.00 90
20260905232522 51 344 2.0 4.0 0.00 0.00 0.00 90
20260905231535 51 344 1.0 2.0 0.00 0.00 0.00 89
20260905230518 51 344 0.0 2.0 0.00 0.00 0.00 89
20260905225531 52 344 0.0 0.0 0.00 0.00 0.00 89
20260905224535 51 344 0.0 0.0 0.00 0.00 0.00 89
20260905223518 52 344 0.0 0.0 0.00 0.00 0.00 89
20260905222527 52 344 0.0 0.0 0.00 0.00 0.00 89
20260905221541 52 344 0.0 0.0 0.00 0.00 0.00 88
20260905220526 53 344 1.0 2.0 0.00 0.00 0.00 89
20260905215530 53 344 0.0 2.0 0.00 0.00 0.00 88
20260905214523 53 344 0.0 2.0 0.00 0.00 0.00 88
20260905213556 53 344 2.0 2.0 0.00 0.00 0.00 89
20260905212537 53 344 0.0 2.0 0.00 0.00 0.00 88
20260905211546 54 344 0.0 0.0 0.00 0.00 0.00 87
20260905210530 54 344 0.0 0.0 0.00 0.00 0.00 87
20260905205543 54 344 0.0 4.0 0.00 0.00 0.00 87
20260905204526 54 344 0.0 2.0 0.00 0.00 0.00 87
20260905203530 55 344 0.0 2.0 0.00 0.00 0.00 86
20260905202542 55 344 2.0 3.0 0.00 0.00 0.00 86
20260905201534 55 344 0.0 0.0 0.00 0.00 0.00 85
20260905200534 56 344 0.0 2.0 0.00 0.00 0.00 85
20260905195546 56 344 2.0 2.0 0.00 0.00 0.00 84
20260905194529 57 344 0.0 0.0 0.00 0.00 0.00 82
20260905193541 57 344 0.0 0.0 0.00 0.00 0.00 81
20260905192525 58 344 0.0 0.0 0.00 0.00 0.00 80
20260905191529 59 344 1.0 4.0 0.00 0.00 0.00 78
20260905190521 60 344 1.0 2.0 0.00 0.00 0.00 77
20260905185525 61 344 0.0 0.0 0.00 0.00 0.00 76
20260905184533 61 344 0.0 4.0 0.00 0.00 0.00 75
20260905183537 62 344 2.0 4.0 0.00 0.00 0.00 75
20260905182549 63 344 1.0 5.0 0.00 0.00 0.00 73
20260905181541 63 342 3.0 5.0 0.00 0.00 0.00 73
20260905180524 64 339 3.0 5.0 0.00 0.00 0.00 72
20260905175536 65 337 3.0 6.0 0.00 0.00 0.00 70
20260905174540 65 337 2.0 8.0 0.00 0.00 0.00 68
20260905173529 66 347 4.0 7.0 0.00 0.00 0.00 66
20260905172542 66 340 4.0 9.0 0.00 0.00 0.00 65
20260905171527 67 355 5.0 9.0 0.00 0.00 0.00 65
20260905170530 68 341 6.0 10.0 0.00 0.00 0.00 63
20260905165522 68 323 4.0 12.0 0.00 0.00 0.00 65
20260905164526 68 344 5.0 10.0 0.00 0.00 0.00 65
20260905163540 68 319 9.0 15.0 0.00 0.00 0.00 63
20260905162529 69 341 7.0 12.0 0.00 0.00 0.00 65
20260905161532 69 317 7.0 14.0 0.00 0.00 0.00 64
20260905160546 69 331 6.0 15.0 0.00 0.00 0.00 62
20260905155528 70 305 10.0 16.0 0.00 0.00 0.00 63
20260905154541 70 5 9.0 18.0 0.00 0.00 0.00 63
20260905153524 70 326 6.0 13.0 0.00 0.00 0.00 65
20260905152528 70 5 7.0 15.0 0.00 0.00 0.00 66
20260905151521 71 325 9.0 15.0 0.00 0.00 0.00 64